Lawrenceville, IL

2:28 PM CDT on July 27, 2017 (GMT -0500)
Lawrenceville-Vincennes International

Weather History for KLWV - May, 2013

Change the Weather History Date:

Tuesday, May 28, 2013

  Actual Average Record
Temperature  
Mean Temperature 75 °F 70 °F  
Max Temperature 85 °F 80 °F 95 °F (2012)
Min Temperature 65 °F 59 °F 42 °F (1992)
Degree Days  
Heating Degree Days 0 1  
Month to date heating degree days 78 79  
Since 1 July heating degree days 4927 4670  
Cooling Degree Days 10 6  
Month to date cooling degree days 112 94  
Year to date cooling degree days 134 120  
Growing Degree Days 25 (Base 50)    
Moisture  
Dew Point 64 °F    
Average Humidity 69    
Maximum Humidity 87    
Minimum Humidity 51    
Precipitation  
Precipitation 0.01 in 0.11 in 1.33 in (1972)
Month to date precipitation 5.53 5.19  
Year to date precipitation 23.23 17.17  
Sea Level Pressure  
Sea Level Pressure 29.92 in    
Wind  
Wind Speed 16 mph (SSW)    
Max Wind Speed 37 mph    
Max Gust Speed 45 mph    
Visibility 8 miles    
Events      
T = Trace of Precipitation, MM = Missing Value Source: NWS Daily Summary

Daily Weather History Graph

Daily Weather History Graph

Search for Another Location

Airport or City:

Trip Planner

Search our weather history database for the weather conditions in past years. The results will help you decide how hot, cold, wet, or windy it might be!

Date:

Astronomy

May. 28, 2013 Rise Set
Actual Time 5:29 AM CDT 8:06 PM CDT
Civil Twilight 4:58 AM CDT 8:37 PM CDT
Nautical Twilight 4:19 AM CDT 9:16 PM CDT
Astronomical Twilight 3:36 AM CDT 10:00 PM CDT
Moon 11:31 PM CDT (5/28) 9:15 AM CDT (5/28)
Length of Visible Light 15h 39m
Length of Day
14h 37m
Waning Gibbous, 82% of the Moon is Illuminated
May 28
Waning Gibbous
May 31
Last Quarter
Jun 8
New
Jun 16
First Quarter
Jun 23
Full

Hourly Weather History & Observations

Time (CDT) Temp. Heat Index Dew Point Humidity Pressure Visibility Wind Dir Wind Speed Gust Speed Precip Events Conditions
12:53 AM 66.0 °F - 63.0 °F 90% 29.95 in 9.0 mi South 6.9 mph - N/A   Clear
1:53 AM 66.0 °F - 62.1 °F 87% 29.96 in 8.0 mi South 3.5 mph - N/A   Clear
2:53 AM 66.9 °F - 62.1 °F 84% 29.92 in 8.0 mi South 10.4 mph - N/A   Clear
3:53 AM 66.9 °F - 62.1 °F 84% 29.92 in 7.0 mi South 9.2 mph - N/A   Clear
4:53 AM 68.0 °F - 63.0 °F 84% 29.92 in 7.0 mi South 12.7 mph - N/A   Clear
5:53 AM 68.0 °F - 63.0 °F 84% 29.95 in 5.0 mi South 11.5 mph - N/A   Haze
6:53 AM 69.1 °F - 64.0 °F 84% 29.97 in 5.0 mi South 10.4 mph - N/A   Haze
7:53 AM 71.1 °F - 64.9 °F 81% 29.96 in 6.0 mi South 11.5 mph - N/A   Haze
8:53 AM 73.9 °F - 66.0 °F 76% 29.96 in 6.0 mi SSW 19.6 mph - N/A   Haze
9:53 AM 77.0 °F - 66.9 °F 71% 29.95 in 7.0 mi SSW 19.6 mph 28.8 mph N/A   Clear
10:53 AM 80.1 °F 82.7 °F 68.0 °F 67% 29.96 in 7.0 mi SSW 21.9 mph 29.9 mph 0.01 in   Clear
11:53 AM 81.0 °F 83.8 °F 68.0 °F 65% 29.96 in 8.0 mi SSW 20.7 mph 27.6 mph N/A   Scattered Clouds
12:53 PM 82.9 °F 85.4 °F 66.9 °F 58% 29.94 in 8.0 mi SSW 23.0 mph 31.1 mph N/A   Mostly Cloudy
1:53 PM 84.0 °F 86.3 °F 66.0 °F 55% 29.90 in 8.0 mi SSW 26.5 mph 38.0 mph N/A   Clear
2:53 PM 82.9 °F 84.6 °F 64.9 °F 54% 29.91 in 8.0 mi SSW 19.6 mph 29.9 mph N/A   Clear
3:33 PM 82.4 °F 83.9 °F 64.4 °F 54% 29.88 in 5.0 mi SSW 29.9 mph 39.1 mph N/A   Haze
3:53 PM 84.0 °F 85.4 °F 64.0 °F 51% 29.85 in 7.0 mi SSW 29.9 mph 41.4 mph N/A   Clear
4:53 PM 84.9 °F 86.6 °F 64.9 °F 51% 29.86 in 7.0 mi SSW 26.5 mph 40.3 mph N/A   Clear
5:53 PM 84.9 °F 86.6 °F 64.9 °F 51% 29.87 in 9.0 mi SSW 21.9 mph 27.6 mph N/A   Clear
6:53 PM 82.0 °F 83.8 °F 64.9 °F 56% 29.89 in 8.0 mi SSW 13.8 mph - N/A   Clear
7:53 PM 79.0 °F - 66.0 °F 64% 29.89 in 8.0 mi South 12.7 mph - N/A   Clear
8:53 PM 77.0 °F - 64.9 °F 66% 29.89 in 8.0 mi South 12.7 mph - N/A   Clear
9:53 PM 77.0 °F - 62.1 °F 60% 29.91 in 10.0 mi South 12.7 mph - N/A   Clear
10:53 PM 73.0 °F - 62.1 °F 68% 29.94 in 10.0 mi South 8.1 mph - N/A   Scattered Clouds
11:53 PM 73.0 °F - 61.0 °F 66% 29.94 in 10.0 mi South 11.5 mph - N/A   Partly Cloudy